Location: Unspecified
(0.0000°N, 0.0000°E)
Time: 01:23:59
(UTC+00:00)

Vanguard 1 - Pass Details

Date: 20 November 2019
Orbit: 652 x 3832 km, 34.3° (Epoch: 10 December)

Event Time Altitude Azimuth Distance (km) Brightness Sun altitude
Rises 19:52:01 0° 278° (W) 3,641 13.8 -29.5°
Reaches altitude 10° 19:54:26 10° 268° (W) 2,954 13.3 -30.1°
Maximum altitude 20:01:00 34° 204° (SSW) 2,353 12.2 -31.6°
Drops below altitude 10° 20:12:05 10° 145° (SE) 5,010 13.5 -34.1°
Sets 20:17:47 0° 137° (SE) 6,591 14.1 -35.4°
